Location: Aurora Center
(43.5271°N, 98.5894°W)
Time: 11:14:48
(UTC-05:00)

STARLINK-11116 [DTC] - Pass Details

Date: 18 June 2024
Orbit: 359 x 360 km, 53.2° (Epoch: 09 September)

Event Time Altitude Azimuth Distance (km) Brightness Sun altitude
Rises 22:16:21 0° 303° (WNW) 2,172 8.6 -8.9°
Reaches altitude 10° 22:19:11 10° 333° (NNW) 1,327 7.0 -9.3°
Maximum altitude 22:20:41 13° 4° (N) 1,163 5.9 -9.5°
Drops below altitude 10° 22:22:11 10° 34° (NE) 1,327 5.7 -9.7°
Enters shadow 22:26:08 -3° 70° (ENE) 2,587 6.8 -10.2°
